[[{"header":{"parameterUnit":"m.s-1","parameterCategory":1,"la1":30.2991,"la2":30.254,"lo1":-89.0895,"lo2":-89.0444,"dy":0.0017,"dx":0.0017,"nx":28,"ny":28,"refTime":"2024-03-17T21:00:00:Z","depth":0,"parameterNumber":2,"parameterNumberName":"U-component_of_WINDS"},"data":[0,0,0,0,0,0,0,0,0,0,0,0,0,0,0,0,0,0,0,0,0,0,0,0,0,0,0,0,0,0,0,0,0,0,0,0,0,0,0,0,0,0,0,0,0,0,0,0,0,0,0,0,0,0,0,0,0,0,-0.6611,-0.6611,0,-0.6578,-0.6578,-0.6577,-0.6502,-0.65,-0.6499,-0.6497,-0.6467,-0.6467,-0.6468,0,0,0,0,0,0,0,0,0,0,0,0,0,-0.6612,-0.6612,-0.6611,-0.6611,-0.661,-0.6578,-0.6578,-0.6577,-0.6502,-0.65,-0.6498,-0.6496,-0.6466,-0.6467,-0.6468,0,0,0,0,0,0,0,0,0,0,0,0,0,-0.6598,-0.6612,-0.6611,-0.6569,-0.6564,-0.6578,-0.6578,-0.6577,-0.6502,-0.65,-0.6498,-0.6495,-0.6466,-0.6467,-0.6468,-0.6521,0,0,-0.6471,-0.6471,0,0,0,0,0,0,0,0,-0.6599,-0.6599,-0.6575,-0.6572,-0.6567,-0.6541,-0.6567,-0.6558,-0.6503,-0.6526,-0.6497,-0.6494,-0.6494,-0.6492,-0.6491,-0.652,-0.6518,-0.6471,-0.6472,-0.6472,-0.6472,0,0,0,0,0,0,0,-0.66,-0.66,-0.6598,-0.6575,-0.657,-0.6552,-0.6548,-0.6565,-0.6524,-0.6524,-0.6518,-0.6515,-0.6491,-0.649,-0.649,-0.6518,-0.6471,-0.6472,-0.6472,-0.6473,-0.659,-0.6592,0,0,0,0,0,0,-0.6607,-0.6601,-0.6599,-0.6597,-0.6578,-0.6554,-0.6549,-0.6552,-0.6523,-0.6516,-0.6517,-0.6512,-0.649,-0.6489,-0.6489,-0.655,-0.6472,-0.6473,-0.6474,-0.6587,-0.659,-0.6593,0,0,0,0,0,0,-0.6607,-0.6607,-0.66,-0.6597,-0.6595,-0.6557,-0.6561,-0.6553,-0.6552,-0.6518,-0.6511,-0.6524,-0.6488,-0.6487,-0.6514,-0.6548,-0.6473,-0.6474,-0.6584,-0.6588,-0.6592,-0.6673,0,0,0,0,0,0,-0.6608,-0.6608,-0.6627,-0.6598,-0.6595,-0.6625,-0.6563,-0.6554,-0.6554,-0.6546,-0.6523,-0.6517,-0.6486,-0.6513,-0.6515,-0.6548,-0.6475,-0.6581,-0.6586,-0.659,-0.6667,-0.6679,-0.6689,0,0,0,0,0,-0.6608,-0.6652,-0.6628,-0.6629,-0.6618,-0.6627,-0.6626,-0.6589,-0.6557,-0.6576,-0.6554,-0.6517,-0.6543,-0.6516,-0.6518,-0.6552,-0.6579,-0.6585,-0.659,-0.6662,-0.6677,-0.6689,0,0,0,0,0,0,-0.6687,-0.6647,-0.6621,-0.6657,-0.6646,-0.6615,-0.6638,-0.6606,-0.6605,-0.6598,-0.6553,-0.6548,-0.6581,-0.6569,-0.6539,-0.6602,-0.6555,-0.6561,-0.6609,-0.6623,-0.6634,-0.6637,-0.6476,0,0,0,0,0,-0.6708,-0.6718,-0.6683,-0.6718,-0.6714,-0.6677,-0.6679,-0.6652,-0.6639,-0.6635,-0.6615,-0.6605,-0.6611,-0.6616,-0.6619,-0.6664,-0.6659,-0.6689,-0.67,-0.6709,-0.6716,-0.674,-0.6753,-0.6612,-0.6611,-0.6611,0,0,-0.6753,-0.6732,-0.6741,-0.6733,-0.6721,-0.6734,-0.6674,-0.6689,-0.6698,-0.6637,-0.6661,-0.6646,-0.6632,-0.6669,-0.6684,-0.6659,-0.6753,-0.6716,-0.6724,-0.6725,-0.6747,-0.676,-0.6772,-0.6615,-0.6615,-0.6614,0,0,-0.684,-0.6825,-0.6853,-0.6843,-0.6825,-0.6801,-0.6808,-0.6781,-0.6769,-0.6792,-0.6747,-0.6757,-0.6768,-0.676,-0.6758,-0.6843,-0.681,-0.6846,-0.6904,-0.6928,-0.694,-0.6949,-0.6981,-0.6993,-0.6852,-0.6852,-0.6852,0,-0.6898,-0.6914,-0.6872,-0.689,-0.6888,-0.6833,-0.6862,-0.6854,-0.684,-0.684,-0.6813,-0.6826,-0.6812,-0.6847,-0.6868,-0.6867,-0.6875,-0.6849,-0.6941,-0.695,-0.6959,-0.6989,-0.7001,-0.6857,-0.6856,-0.6856,-0.6855,0,-0.6987,-0.6998,-0.7023,-0.701,-0.7011,-0.7034,-0.6997,-0.7003,-0.6976,-0.6954,-0.6979,-0.6961,-0.696,-0.6966,-0.694,-0.6997,-0.6983,-0.6949,-0.6901,-0.6978,-0.7005,-0.7016,-0.6863,-0.6862,-0.686,-0.6859,0,0,-0.7124,-0.7087,-0.7097,-0.7091,-0.7068,-0.7076,-0.7098,-0.7096,-0.7103,-0.7095,-0.7113,-0.7124,-0.7092,-0.7089,-0.7061,-0.7082,-0.7153,-0.7046,-0.7045,-0.7068,-0.7218,-0.7245,-0.7259,-0.713,-0.7132,-0.7134,-0.7219,0,-0.7208,-0.7241,-0.7204,-0.7246,-0.7257,-0.7205,-0.7224,-0.7213,-0.7193,-0.7201,-0.7179,-0.7188,-0.7145,-0.7143,-0.7162,-0.7141,-0.7183,-0.7134,-0.7148,-0.7149,-0.7155,-0.7273,-0.7301,-0.7383,-0.723,-0.7231,-0.7233,0,-0.731,-0.7306,-0.7349,-0.7324,-0.7327,-0.7345,-0.7341,-0.7348,-0.7334,-0.7319,-0.7316,-0.7282,-0.7303,-0.7255,-0.7284,-0.7251,-0.7255,-0.7245,-0.7248,-0.7249,-0.7197,-0.7279,-0.7408,-0.7421,-0.7249,-0.7248,-0.7246,0,-0.7408,-0.7413,-0.744,-0.7436,-0.7407,-0.7421,-0.741,-0.7393,-0.7395,-0.7392,-0.7393,-0.7393,-0.7393,-0.7394,-0.7362,-0.733,-0.7396,-0.7345,-0.7385,-0.7386,-0.7403,-0.7402,-0.7536,-0.7402,-0.7402,-0.7402,-0.7401,0,-0.7506,-0.7535,-0.7484,-0.75,-0.7532,-0.7489,-0.7521,-0.7505,-0.7491,-0.7505,-0.7459,-0.7473,-0.7428,-0.7438,-0.7412,-0.7441,-0.7441,-0.743,-0.7424,-0.7435,-0.7437,-0.7439,-0.7433,-0.7405,-0.7404,-0.7403,-0.7403,0,-0.7622,-0.7588,-0.7614,-0.7584,-0.7578,-0.7602,-0.7577,-0.7592,-0.7569,-0.7587,-0.7589,-0.7554,-0.7563,-0.753,-0.7534,-0.7516,-0.756,-0.7542,-0.7564,-0.756,-0.7603,-0.76,-0.7743,-0.7761,-0.7614,-0.7616,-0.7617,0,-0.7688,-0.7709,-0.7681,-0.7686,-0.7677,-0.7686,-0.7688,-0.7647,-0.765,-0.7637,-0.7654,-0.7659,-0.7661,-0.7678,-0.7654,-0.7656,-0.764,-0.769,-0.7641,-0.7652,-0.7643,-0.7643,-0.7646,-0.7701,-0.7703,-0.7705,-0.7706,0,-0.7809,-0.7791,-0.7794,-0.7792,-0.7795,-0.7792,-0.7785,-0.7792,-0.7748,-0.7755,-0.7763,-0.7765,-0.7768,-0.7774,-0.7772,-0.7762,-0.7728,-0.7721,-0.7731,-0.7745,-0.7757,-0.7753,-0.7594,-0.7719,-0.7717,-0.7716,-0.7716,-0.7715,-0.7902,-0.7919,-0.7902,-0.7908,-0.7898,-0.7894,-0.7907,-0.7885,-0.7891,-0.789,-0.7865,-0.7879,-0.7866,-0.7859,-0.7852,-0.7863,-0.784,-0.7854,-0.7858,-0.7862,-0.7871,-0.7754,-0.7862,-0.7862,-0.7862,-0.7861,-0.7861,0,-0.8023,-0.8009,-0.8015,-0.8007,-0.8012,-0.7977,-0.7968,-0.7975,-0.7987,-0.7977,-0.798,-0.799,-0.7996,-0.7972,-0.7975,-0.7988,-0.7973,-0.7991,-0.799,-0.7989,-0.789,-0.7882,-0.8003,-0.8003,-0.8003,-0.8003,-0.8003,-0.8003,-0.8086,-0.8113,-0.8093,-0.8115,-0.8102,-0.8114,-0.8112,-0.8108,-0.81,-0.8113,-0.8117,-0.8101,-0.8086,-0.8088,-0.8092,-0.8085,-0.8089,-0.8113,-0.8101,-0.8009,-0.7996,-0.7983,-0.7975,-0.8114,-0.8114,-0.8199,-0.82,-0.82]},{"header":{"parameterUnit":"m.s-1","parameterCategory":1,"la1":30.2991,"la2":30.254,"lo1":-89.0895,"lo2":-89.0444,"dy":0.0017,"dx":0.0017,"nx":28,"ny":28,"refTime":"2024-03-17T21:00:00:Z","depth":0,"parameterNumber":3,"parameterNumberName":"V-component_of_WINDS"},"data":[0,0,0,0,0,0,0,0,0,0,0,0,0,0,0,0,0,0,0,0,0,0,0,0,0,0,0,0,0,0,0,0,0,0,0,0,0,0,0,0,0,0,0,0,0,0,0,0,0,0,0,0,0,0,0,0,0,0,-0.2571,-0.2571,0,-0.2612,-0.2613,-0.2613,-0.2587,-0.2586,-0.2584,-0.2583,-0.2627,-0.263,-0.2632,0,0,0,0,0,0,0,0,0,0,0,0,0,-0.2471,-0.2473,-0.2571,-0.2571,-0.2572,-0.2612,-0.2613,-0.2613,-0.2587,-0.2585,-0.2584,-0.2583,-0.2627,-0.2629,-0.2632,0,0,0,0,0,0,0,0,0,0,0,0,0,-0.2513,-0.2473,-0.2571,-0.2564,-0.2563,-0.2612,-0.2613,-0.2613,-0.2587,-0.2585,-0.2584,-0.2582,-0.2626,-0.2629,-0.2632,-0.2691,0,0,-0.2643,-0.2645,0,0,0,0,0,0,0,0,-0.2511,-0.2517,-0.2564,-0.2564,-0.2564,-0.2592,-0.2594,-0.264,-0.2588,-0.2578,-0.2583,-0.2581,-0.2617,-0.2621,-0.2633,-0.2693,-0.2695,-0.2643,-0.2646,-0.2647,-0.2648,0,0,0,0,0,0,0,-0.2508,-0.2515,-0.2587,-0.2565,-0.2565,-0.2559,-0.2563,-0.2602,-0.2608,-0.2579,-0.2577,-0.2582,-0.2617,-0.263,-0.2634,-0.2696,-0.2643,-0.2646,-0.2649,-0.265,-0.2807,-0.2809,0,0,0,0,0,0,-0.2506,-0.2513,-0.2586,-0.2589,-0.2532,-0.2562,-0.2567,-0.2585,-0.2607,-0.2609,-0.2584,-0.2581,-0.2625,-0.263,-0.2636,-0.2707,-0.2647,-0.265,-0.2652,-0.2805,-0.2807,-0.281,0,0,0,0,0,0,-0.2504,-0.2512,-0.2584,-0.255,-0.2559,-0.2566,-0.2587,-0.2587,-0.26,-0.2611,-0.2612,-0.2596,-0.2624,-0.2631,-0.2678,-0.2708,-0.2652,-0.2655,-0.2802,-0.2806,-0.2808,-0.285,0,0,0,0,0,0,-0.2501,-0.2512,-0.2534,-0.2551,-0.2561,-0.2626,-0.2589,-0.2589,-0.2606,-0.2602,-0.2623,-0.2624,-0.2623,-0.2673,-0.2681,-0.2712,-0.2658,-0.28,-0.2804,-0.2807,-0.2846,-0.2854,-0.2861,0,0,0,0,0,-0.2497,-0.2544,-0.2535,-0.2544,-0.2589,-0.2627,-0.2633,-0.263,-0.2608,-0.2631,-0.2638,-0.2624,-0.2703,-0.2678,-0.2687,-0.2719,-0.2798,-0.2803,-0.2807,-0.2842,-0.2852,-0.2861,0,0,0,0,0,0,-0.2531,-0.2546,-0.2536,-0.259,-0.2607,-0.2623,-0.2651,-0.264,-0.2665,-0.2661,-0.2656,-0.2661,-0.271,-0.2719,-0.2691,-0.2778,-0.2747,-0.2754,-0.2771,-0.278,-0.2787,-0.2785,-0.2661,0,0,0,0,0,-0.2544,-0.2574,-0.2586,-0.2632,-0.2641,-0.2645,-0.2661,-0.2657,-0.2675,-0.2683,-0.2693,-0.2712,-0.2741,-0.2761,-0.2788,-0.2846,-0.2851,-0.2873,-0.288,-0.2886,-0.2893,-0.2926,-0.2936,-0.2825,-0.2825,-0.2825,0,0,-0.2573,-0.2585,-0.2604,-0.2639,-0.2652,-0.2684,-0.2651,-0.2686,-0.2709,-0.2688,-0.2734,-0.2742,-0.2762,-0.2816,-0.2839,-0.2825,-0.2925,-0.2892,-0.2897,-0.2901,-0.2932,-0.2942,-0.2952,-0.2828,-0.2828,-0.2827,0,0,-0.2641,-0.2652,-0.2693,-0.2706,-0.2727,-0.2729,-0.2738,-0.2755,-0.276,-0.2805,-0.279,-0.2818,-0.2868,-0.2884,-0.2898,-0.2972,-0.2961,-0.2981,-0.3022,-0.3054,-0.3062,-0.307,-0.3099,-0.3108,-0.2987,-0.2987,-0.2987,0,-0.2675,-0.2721,-0.2715,-0.2751,-0.2768,-0.2749,-0.279,-0.2804,-0.2832,-0.2844,-0.2826,-0.2889,-0.2902,-0.2959,-0.2977,-0.2989,-0.3001,-0.298,-0.3061,-0.3069,-0.3076,-0.3103,-0.3114,-0.299,-0.299,-0.2989,-0.2989,0,-0.2762,-0.2794,-0.2825,-0.2852,-0.2872,-0.291,-0.291,-0.2931,-0.2925,-0.2929,-0.2975,-0.2989,-0.302,-0.3032,-0.3027,-0.3089,-0.308,-0.3062,-0.3031,-0.309,-0.3115,-0.3125,-0.2994,-0.2993,-0.2992,-0.2991,0,0,-0.2855,-0.2878,-0.2889,-0.2902,-0.2922,-0.2948,-0.2985,-0.3015,-0.3033,-0.3053,-0.3085,-0.3128,-0.3111,-0.3128,-0.3124,-0.3151,-0.3211,-0.313,-0.3131,-0.3147,-0.3283,-0.3298,-0.331,-0.3202,-0.3204,-0.3206,-0.3282,0,-0.2926,-0.2992,-0.2987,-0.305,-0.3081,-0.3063,-0.3096,-0.3112,-0.3117,-0.3144,-0.3149,-0.318,-0.3155,-0.3165,-0.3191,-0.3198,-0.3239,-0.3192,-0.3234,-0.3236,-0.3232,-0.3323,-0.3339,-0.341,-0.3291,-0.3293,-0.3294,0,-0.3019,-0.3042,-0.3107,-0.3124,-0.3136,-0.3166,-0.3193,-0.3218,-0.3237,-0.3238,-0.3256,-0.3248,-0.3286,-0.3253,-0.3308,-0.3276,-0.3293,-0.3299,-0.3301,-0.3307,-0.3271,-0.3333,-0.3432,-0.3444,-0.3309,-0.3308,-0.3307,0,-0.3083,-0.3129,-0.3175,-0.3186,-0.3206,-0.3227,-0.3237,-0.3253,-0.3271,-0.3294,-0.3306,-0.3334,-0.3349,-0.3371,-0.337,-0.3346,-0.3426,-0.3392,-0.343,-0.343,-0.345,-0.3449,-0.3555,-0.3456,-0.3456,-0.3456,-0.3456,0,-0.3164,-0.3206,-0.3204,-0.3233,-0.3278,-0.3272,-0.3318,-0.3325,-0.334,-0.337,-0.3355,-0.3384,-0.3379,-0.3408,-0.3407,-0.3454,-0.346,-0.3463,-0.3463,-0.3466,-0.3466,-0.3479,-0.3475,-0.3459,-0.3458,-0.3457,-0.3457,0,-0.3245,-0.3245,-0.3294,-0.3308,-0.3312,-0.3346,-0.3359,-0.3386,-0.3388,-0.3426,-0.3435,-0.344,-0.3473,-0.3473,-0.3511,-0.3511,-0.3568,-0.3561,-0.3562,-0.3561,-0.36,-0.3597,-0.372,-0.3736,-0.3625,-0.3626,-0.3626,0,-0.3298,-0.3329,-0.3347,-0.3366,-0.3376,-0.3407,-0.3425,-0.342,-0.344,-0.3463,-0.3488,-0.3519,-0.3544,-0.3598,-0.3605,-0.3635,-0.363,-0.367,-0.3634,-0.3636,-0.3633,-0.3632,-0.3636,-0.3679,-0.368,-0.3681,-0.3682,0,-0.3393,-0.3392,-0.3419,-0.3446,-0.3468,-0.3489,-0.3508,-0.3524,-0.3522,-0.3545,-0.3578,-0.3598,-0.3636,-0.3668,-0.3696,-0.3706,-0.3695,-0.3693,-0.3703,-0.3708,-0.3708,-0.3711,-0.3584,-0.3691,-0.369,-0.3689,-0.3688,-0.3688,-0.3463,-0.3491,-0.3508,-0.3538,-0.3552,-0.3571,-0.3597,-0.3603,-0.3631,-0.3662,-0.3656,-0.3694,-0.3712,-0.3749,-0.3761,-0.3791,-0.3777,-0.3792,-0.3796,-0.38,-0.3806,-0.3701,-0.3796,-0.3795,-0.3795,-0.3795,-0.3795,0,-0.356,-0.357,-0.3598,-0.3625,-0.3649,-0.3634,-0.3655,-0.3677,-0.371,-0.3727,-0.3752,-0.3791,-0.3822,-0.3831,-0.3861,-0.3884,-0.3879,-0.3892,-0.3892,-0.3894,-0.3815,-0.3804,-0.3895,-0.3895,-0.3895,-0.3895,-0.3895,-0.3895,-0.3613,-0.366,-0.366,-0.3713,-0.3723,-0.376,-0.3773,-0.379,-0.3804,-0.3848,-0.3874,-0.3879,-0.3894,-0.3925,-0.3953,-0.3954,-0.3967,-0.3983,-0.3983,-0.391,-0.39,-0.389,-0.388,-0.3985,-0.3985,-0.406,-0.4061,-0.4061]}]]